Location: ??????????
(48.5701°N, 37.7703°E)
Time: 19:25:37
(UTC+00:00)

CZ-2D R/B - Pass Details

Date: 14 July 2020
Orbit: 792 x 844 km, 98.7° (Epoch: 11 August)

Event Time Altitude Azimuth Distance (km) Brightness Sun altitude
Rises 00:37:19 0° 5° (N) 3,344 6.3 -8.8°
Reaches altitude 10° 00:40:03 10° 352° (N) 2,417 5.2 -8.5°
Maximum altitude 00:44:13 24° 301° (WNW) 1,652 3.6 -8.1°
Drops below altitude 10° 00:48:25 10° 249° (WSW) 2,432 4.0 -7.6°
Enters shadow 00:49:08 - 245° (WSW) 2,661 4.2 -7.5°
